Regional Weather Roundup
Issued by NWS

Home | Current Version | Previous Version | Text Only | Print | Product List | Glossary Off
Versions: 1 2 3 4 5 6 7 8 9 10 11 12 13 14 15 16 17 18 19 20 21 22 23 24 25 26 27 28 29 30 31 32 33 34 35 36 37 38 39 40 41 42 43 44 45 46 47 48 49 50

000
ASUS43 KFSD 011710
RWRSD

WEATHER ROUNDUP FOR SOUTH DAKOTA
NATIONAL WEATHER SERVICE SIOUX FALLS SD
1200 PM CDT TUE SEP 01 2015

NOTE: "FAIR" INDICATES FEW OR NO CLOUDS BELOW 12,000 FEET WITH NO
SIGNIFICANT WEATHER AND/OR OBSTRUCTIONS TO VISIBILITY.


SDZ001>005-009-010-012>017-011800-
NORTHWEST AND NORTH CENTRAL SOUTH DAKOTA

CITY           SKY/WX    TMP DP  RH WIND       PRES   REMARKS
BUFFALO          N/A     76  61  59 CALM      29.81F
FAITH            N/A     77  60  55 S14       29.85F
MOBRIDGE       SUNNY     81  66  60 SE15      29.84S
$$

SDZ012>016-024>037-041>051-057-063-072>074-011800-
SOUTHWEST AND SOUTH CENTRAL SOUTH DAKOTA

CITY           SKY/WX    TMP DP  RH WIND       PRES   REMARKS
RAPID CTY ARPT SUNNY     76  60  57 VRB5      29.89R
PIERRE         SUNNY     82  68  62 S9        29.83F
CUSTER         SUNNY     80  37  21 W10       30.03S
ELLSWORTH AFB  SUNNY     75  60  59 E6        29.88S
PHILIP         SUNNY     82  62  50 S9        29.84F
PINE RIDGE     SUNNY     84  46  26 W7        29.93R
WINNER         LGT RAIN  73  66  78 SW7       29.88S
$$

SDZ004>011-016>023-039-040-011800-
NORTHEAST SOUTH DAKOTA

CITY           SKY/WX    TMP DP  RH WIND       PRES   REMARKS
ABERDEEN       SUNNY     81  67  62 S14       29.88S
WATERTOWN      PTSUNNY   78  69  73 S13G18    29.92R
BROOKINGS      CLOUDY    70  66  88 W6        29.97R
SISSETON         N/A     81  66  60 S10       29.87S
$$

SDZ017-020-022-023-036>040-048>070-011800-
SOUTHEAST SOUTH DAKOTA

CITY           SKY/WX    TMP DP  RH WIND       PRES   REMARKS
SIOUX FALLS    CLOUDY    76  69  79 NW6       29.92R
HURON          CLOUDY    72  68  87 SE5       29.86F
CHAMBERLAIN    PTSUNNY   71  68  90 CALM      29.87R
MITCHELL       CLOUDY    72  70  93 E6        29.88F
YANKTON        PTSUNNY   77  66  69 CALM      29.88S
$$

ABBREVIATIONS USED IN REMARKS
   TC - TEMPERATURE IN CELSIUS
  WCI - WIND CHILL INDEX
   HX - HEAT INDEX
  VSB - VISIBILITY



USA.gov is the U.S. government's official web portal to all federal, state and local government web resources and services.